www.pogodaiklimat.ru

Погода и климат >> Архив погоды >> Индия >> Satna


ПОГОДА в Satna

  • Прогноз погоды в Satna
  • Монитор погоды в Satna
  • Климат города

АРХИВ ПОГОДЫ в Satna

Время (UTC), дата Ветер
(напр.,м/с)
 
Видим.   Явления Облачность Т
(С)
Тd
(С)
f
(%)
Тe
(С)
Тes
(С)
Комфортность P
(гПа)
Po
(гПа)
Тmin
(С)
Tmax
(С)
R
(мм)
R24
(мм)
S
(см)
00 11.11 штиль 0 4000 м ясно +13.4 +9.9 79 +13 +13 1015.0 1015.0
03 11.11 штиль 0 4000 м мгла ясно +18.0 +10.6 62 +18 +22 1016.8 1017.0 +12.1
06 11.11 штиль 0 4000 м мгла ясно +27.6 +9.7 33 +28 +43 жарко 1015.2 1015.0
09 11.11 С 1 4000 м ясно +29.6 +7.0 24 +28 +37 жарко 1012.1 1012.0
12 11.11 штиль 0 4000 м ясно +26.0 +8.7 33 +26 +26 жарко 1012.8 1013.0 +30.4
15 11.11 штиль 0 4000 м ясно +19.4 +10.6 57 +20 +20 1015.2 1015.0
18 11.11 штиль 0 4000 м ясно +17.0 +11.5 70 +17 +17 1015.3 1015.0
21 11.11 штиль 0 4000 м ясно +15.0 +10.5 74 +15 +15 1015.0 1015.0
00 12.11 штиль 0 4000 м ясно +14.0 +11.0 82 +14 +14 1014.8 1015.0
03 12.11 штиль 0 4000 м мгла ясно +18.6 +10.9 61 +19 +23 1015.4 1015.0 +12.8
06 12.11 СЗ 1 4000 м мгла ясно +28.4 +9.9 32 +29 +43 жарко 1013.3 1013.0
09 12.11 СЗ 1 4000 м ясно +30.6 +7.6 24 +30 +38 жарко 1009.8 1010.0
12 12.11 штиль 0 4000 м ясно +27.0 +11.2 37 +28 +28 жарко 1010.3 1010.0 +31.0
15 12.11 штиль 0 4000 м ясно +20.4 +11.8 58 +22 +22 комфорт 1012.5 1013.0
18 12.11 штиль 0 4000 м ясно +18.2 +11.7 66 +18 +18 1012.5 1013.0
21 12.11 штиль 0 4000 м ясно +16.4 +12.0 75 +16 +16 1012.0 1012.0
00 13.11 штиль 0 4000 м ясно +15.0 +11.3 79 +15 +15 1012.0 1012.0
03 13.11 штиль 0 4000 м мгла ясно +20.0 +10.9 56 +21 +25 комфорт 1013.0 1013.0 +14.0
06 13.11 ЮВ 1 4000 м мгла ясно +31.0 +8.9 25 +30 +44 жарко 1010.7 1011.0
09 13.11 СЗ 1 4000 м ясно +32.6 +5.1 18 +30 +38 жарко 1007.6 1008.0
12 13.11 штиль 0 4000 м ясно +27.6 +12.1 38 +29 +29 жарко 1007.8 1008.0 +33.2
15 13.11 штиль 0 4000 м ясно +22.4 +11.8 51 +25 +25 комфорт 1009.9 1010.0
18 13.11 штиль 0 4000 м ясно +20.0 +10.0 53 +21 +21 комфорт 1010.4 1010.0
21 13.11 штиль 0 4000 м ясно +18.2 +10.8 62 +18 +18 1009.9 1010.0
00 14.11 штиль 0 4000 м ясно +16.4 +11.2 71 +16 +16 1010.6 1011.0
03 14.11 штиль 0 4000 м мгла ясно +21.4 +10.9 51 +23 +27 комфорт 1012.4 1012.0 +15.3
06 14.11 штиль 0 4000 м мгла ясно +30.6 +11.4 31 +31 +46 жарко 1010.2 1010.0
09 14.11 З 1 4000 м ясно +32.6 +7.1 20 +31 +39 жарко 1007.5 1008.0
12 14.11 штиль 0 4000 м ясно +28.0 +10.3 33 +28 +28 жарко 1009.0 1009.0 +33.0
15 14.11 штиль 0 4000 м ясно +22.0 +13.4 58 +25 +25 комфорт 1011.9 1012.0
18 14.11 штиль 0 4000 м ясно +19.6 +13.3 67 +21 +21 комфорт 1012.7 1013.0
21 14.11 штиль 0 4000 м ясно +17.4 +12.8 74 +17 +17 1012.5 1013.0
00 15.11 штиль 0 4000 м ясно +16.0 +12.4 79 +16 +16 1013.1 1013.0
03 15.11 штиль 0 4000 м мгла ясно +20.4 +11.8 58 +22 +26 комфорт 1014.8 1015.0 +15.5
06 15.11 штиль 0 4000 м мгла ясно +30.6 +11.8 31 +31 +46 жарко 1012.9 1013.0
09 15.11 СЗ 1 4000 м 4/0
[Ac trans]
+33.4 +9.1 22 +32 +38 жарко 1009.9 1010.0
12 15.11 штиль 0 4000 м ясно +27.6 +13.9 43 +30 +30 жарко 1011.4 1011.0 +33.6
15 15.11 штиль 0 4000 м ясно +23.0 +14.6 59 +27 +27 душно 1013.4 1013.0
18 15.11 штиль 0 4000 м ясно +21.0 +14.9 68 +24 +24 комфорт 1013.6 1014.0
21 15.11 штиль 0 4000 м ясно +19.0 +14.5 75 +20 +20 1013.2 1013.0
00 16.11 штиль 0 4000 м ясно +17.6 +14.1 80 +18 +18 1013.4 1013.0
03 16.11 штиль 0 4000 м мгла ясно +21.0 +14.9 68 +24 +28 комфорт 1015.1 1015.0 +16.9
06 16.11 С 1 4000 м мгла ясно +27.0 +13.5 43 +29 +43 жарко 1013.8 1014.0
09 16.11 С 2 4000 м ясно +28.0 +11.7 36 +29 +36 жарко 1010.8 1011.0
12 16.11 штиль 0 4000 м ясно +25.0 +10.7 41 +26 +26 жарко 1011.2 1011.0 +28.6
15 16.11 штиль 0 4000 м ясно +20.4 +8.1 45 +21 +21 комфорт 1013.3 1013.0
18 16.11 штиль 0 4000 м ясно +17.0 +9.4 61 +17 +17 1014.0 1014.0
21 16.11 штиль 0 4000 м ясно +15.0 +9.6 70 +15 +15 1013.6 1014.0
00 17.11 штиль 0 4000 м ясно +13.6 +9.7 77 +13 +13 1013.8 1014.0
03 17.11 штиль 0 4000 м мгла ясно +18.6 +10.0 57 +19 +23 1015.1 1015.0 +12.9
06 17.11 СВ 1 4000 м мгла ясно +27.0 +5.9 26 +26 +40 жарко 1013.0 1013.0
09 17.11 ЮВ 1 4000 м ясно +29.2 +6.2 23 +28 +36 жарко 1009.3 1009.0
12 17.11 штиль 0 4000 м ясно +25.0 +9.8 38 +26 +26 жарко 1010.0 1010.0 +29.6
15 17.11 штиль 0 4000 м ясно +19.4 +10.6 57 +20 +20 1012.3 1012.0
18 17.11 штиль 0 4000 м ясно +17.4 +11.1 66 +17 +17 1012.8 1013.0

 

Местоположение метеостанции Satna (Madhya Pradesh, Индия): широта 24.57 долгота 80.83 высота над уровнем моря 316 м.

В архиве по умолчанию представлена погода в Satna за последнюю неделю. Архивные данные за месяц целиком и за предыдущие месяцы, начиная с января 2011 года, Вы можете получить, выбрав интересующий диапазон дат из раскрывающегося списка и нажав кнопку "Ввод!".


*Определитесь, кто Вы:
робот инопланетянин человек

Внимание! Время в таблицах - всемирное. Для получения местного времени необходимо прибавить поправку, которая в Satna равна 5.5 ч.

Смотрите также архив погоды в соседних городах и на ближайших метеорологических станциях:

Погода в Rewa (Madhya Pradesh, Индия) (48 км)
Погода в Khajuraho (Madhya Pradesh, Индия) (103 км)
Погода в Sidhi (Madhya Pradesh, Индия) (107 км)
Погода в Banda (Uttar Pradesh, Индия) (110 км)
Погода в Umaria (Madhya Pradesh, Индия) (116 км)
Погода в Allahabad (Uttar Pradesh, Индия) (133 км)
Погода в Nowgong (Madhya Pradesh, Индия) (150 км)
Погода в Damoh (Madhya Pradesh, Индия) (162 км)
Погода в Hamirpur (Uttar Pradesh, Индия) (168 км)
Погода в Jabalpur (Madhya Pradesh, Индия) (177 км)

Пояснения к столбцам:

Ветер - указаны скорость ветра в м/с - средняя за 10 мин, порывы в срок и между сроками (в фигурных скобках) и направление, откуда дует ветер: С - северный, СВ - северо-восточный, В - восточный, ЮВ - юго-восточный, Ю - южный, ЮЗ - юго-западный, З - западный, СЗ - северо-западный.
Видимость - горизонтальная дальность видимости в метрах или километрах. При видимости от 1 до 10 км при отсутствии осадков обычно наблюдается дымка, при ухудшении видимости до 1 км и менее - туман. В сухую погоду видимость может ухудшаться дымом, пылью или мглою.
Явления - указаны атмосферные явления, наблюдавшиеся в срок или в последний час перед сроком; фигурными скобками обозначены явления, наблюдавшиеся между сроками (за 1-3 часа до срока); квадратными скобками обозначены град или гололедные отложения с указанием их диаметра в мм.
Облачность - указаны через наклонную черту общая и нижняя облачность в баллах и высота нижней границы облаков в метрах; квадратными скобками обозначены формы облаков: Ci - перистые, Cs - перисто-слоистые, Cc - перисто-кучевые, Ac - высококучевые, As - высокослоистые, Sc - слоисто-кучевые, Ns - слоисто-дождевые, Cu - кучевые, Cb - кучево-дождевые. Подробнее классификацию облаков см. в Атласе облаков (PDF).
T - Температура воздуха - температура, измеренная на высоте 2 м над землей.
Td - Температура точки росы - температура, при понижении до которой содержащийся в воздухе водяной пар достигнет насыщения.
f - Относительная влажность воздуха - влажноcть воздуха, измеренная на высоте 2 м над землей.
Te - Эффективная температура - температура, которую ощущает одетый по сезону человек в тени. Характеристика душности погоды. При расчете учитывается влияние влажности воздуха и скорости ветра на теплоощущения человека.
Tes - Эффективная температура на солнце - температура, которую ощущает человек, с поправкой на солнечный нагрев. Характеристика знойности погоды. Зависит от высоты солнца над горизонтом, облачности и скорости ветра. Ночью, в пасмурную погоду, а также при ветре 12 м/с и более поправка равна нулю.
P - Атмосферное давление - приведенное к уровню моря атмосферное давление.
Po - Атмосферное давление - измеренное на уровне метеостанции атмосферное давление.
Tmin - Минимальная температура - минимум температуры воздуха на высоте 2 м над землей.
Tmax - Максимальная температура - максимум температуры воздуха на высоте 2 м над землей.
R - Количество осадков - Количество выпавших осадков за период времени, мм. При наведении курсора мыши на число - период времени, за который выпало указанное количество осадков.
R24 - Количество осадков - Количество выпавших осадков за 24 часа, мм.
S - Снежный покров - Высота снежного покрова, см. При наведении курсора мыши на число - состояние снежного покрова и степень покрытия местности в баллах.